When you browse on this site, cookies collect data to enhance your experience and personalize the content and advertising you see.
Visit our Privacy Policy to learn more. By continuing to use the site, you agree to this use of cookies and data.
  • In Romania
  • List of Countries
  • For 7 days
  • Water Temperature
  • Satellite Maps
  • Weather Map
  • Weather Widgets
  • user-avatar
    Login

    Hourly Weather Acerenza

    Today, 24 April, Wednesday

    Time Temperature Precipitation Wind Pressure Humidity
    00:00 +9°C° 0 mm 3 mps 698 mmHg 89%
    01:00 +9°C° 0 mm 2 mps 698 mmHg 86%
    02:00 +9°C° 0 mm 2 mps 699 mmHg 86%
    03:00 +9°C° 0 mm 2 mps 699 mmHg 85%
    04:00 +9°C° 0 mm 3 mps 699 mmHg 85%
    05:00 +10°C° 0 mm 3 mps 699 mmHg 84%
    06:00 +11°C° 0 mm 3 mps 700 mmHg 83%
    07:00 +13°C° 0 mm 3 mps 700 mmHg 82%
    08:00 +14°C° 0 mm 3 mps 701 mmHg 77%
    09:00 +17°C° 0 mm 3 mps 701 mmHg 71%
    10:00 +19°C° 0 mm 3 mps 702 mmHg 66%
    11:00 +20°C° 0 mm 3 mps 702 mmHg 63%
    12:00 +21°C° 0 mm 3 mps 702 mmHg 59%
    13:00 +22°C° 0 mm 3 mps 703 mmHg 56%
    14:00 +21°C° 0.1 mm 3 mps 703 mmHg 60%
    15:00 +20°C° 0.1 mm 3 mps 702 mmHg 63%
    16:00 +20°C° 0.1 mm 3 mps 702 mmHg 67%
    17:00 +18°C° 0 mm 3 mps 702 mmHg 74%
    18:00 +16°C° 0 mm 2 mps 701 mmHg 80%
    19:00 +13°C° 0 mm 2 mps 701 mmHg 87%
    20:00 +13°C° 0 mm 2 mps 701 mmHg 84%
    21:00 +13°C° 0 mm 2 mps 702 mmHg 81%
    22:00 +12°C° 0 mm 2 mps 702 mmHg 78%
    23:00 +12°C° 0 mm 1 mps 702 mmHg 74%

    Tomorrow, 25 April, Thursday

    Time Temperature Precipitation Wind Pressure Humidity
    00:00 +12°C° 0 mm 1 mps 702 mmHg 70%
    01:00 +12°C° 0 mm 1 mps 702 mmHg 66%
    02:00 +12°C° 0 mm 1 mps 702 mmHg 64%
    03:00 +11°C° 0 mm 1 mps 702 mmHg 62%
    04:00 +11°C° 0 mm 1 mps 702 mmHg 60%
    05:00 +12°C° 0 mm 1 mps 702 mmHg 63%
    06:00 +14°C° 0 mm 1 mps 703 mmHg 66%
    07:00 +15°C° 0 mm 2 mps 703 mmHg 69%
    08:00 +17°C° 0 mm 2 mps 704 mmHg 64%
    09:00 +19°C° 0 mm 2 mps 704 mmHg 60%
    10:00 +21°C° 0 mm 2 mps 705 mmHg 55%
    11:00 +23°C° 0 mm 2 mps 705 mmHg 53%
    12:00 +23°C° 0 mm 2 mps 705 mmHg 52%
    13:00 +24°C° 0 mm 2 mps 705 mmHg 51%
    14:00 +24°C° 0 mm 2 mps 705 mmHg 54%
    15:00 +23°C° 0 mm 2 mps 704 mmHg 57%
    16:00 +23°C° 0 mm 2 mps 704 mmHg 59%
    17:00 +20°C° 0 mm 2 mps 704 mmHg 69%
    18:00 +17°C° 0 mm 2 mps 703 mmHg 78%
    19:00 +15°C° 0 mm 1 mps 703 mmHg 87%
    20:00 +14°C° 0 mm 2 mps 703 mmHg 85%
    21:00 +13°C° 0 mm 2 mps 703 mmHg 83%
    22:00 +12°C° 0 mm 2 mps 703 mmHg 82%
    23:00 +12°C° 0 mm 2 mps 703 mmHg 75%

    Day after tomorrow, 26 April, Friday

    Time Temperature Precipitation Wind Pressure Humidity
    00:00 +12°C° 0 mm 2 mps 702 mmHg 68%
    01:00 +12°C° 0 mm 2 mps 702 mmHg 62%
    02:00 +12°C° 0 mm 2 mps 702 mmHg 59%
    03:00 +10°C° 0 mm 2 mps 702 mmHg 56%
    04:00 +10°C° 0 mm 2 mps 702 mmHg 53%
    05:00 +13°C° 0 mm 2 mps 702 mmHg 56%
    06:00 +14°C° 0 mm 2 mps 702 mmHg 60%
    07:00 +16°C° 0 mm 2 mps 703 mmHg 64%
    08:00 +18°C° 0 mm 2 mps 703 mmHg 59%
    09:00 +20°C° 0 mm 2 mps 703 mmHg 54%
    10:00 +23°C° 0 mm 2 mps 704 mmHg 49%
    11:00 +24°C° 0 mm 2 mps 704 mmHg 47%
    12:00 +25°C° 0 mm 2 mps 704 mmHg 46%
    13:00 +26°C° 0 mm 2 mps 703 mmHg 44%
    14:00 +25°C° 0 mm 2 mps 703 mmHg 47%
    15:00 +25°C° 0 mm 2 mps 702 mmHg 50%
    16:00 +25°C° 0 mm 3 mps 702 mmHg 52%
    17:00 +21°C° 0 mm 2 mps 701 mmHg 60%
    18:00 +18°C° 0 mm 2 mps 701 mmHg 68%
    19:00 +15°C° 0 mm 2 mps 700 mmHg 76%
    20:00 +15°C° 0 mm 2 mps 700 mmHg 78%
    21:00 +14°C° 0 mm 2 mps 701 mmHg 79%
    22:00 +13°C° 0 mm 2 mps 701 mmHg 80%
    23:00 +12°C° 0.2 mm 2 mps 701 mmHg 83%

    27 April, Saturday

    Time Temperature Precipitation Wind Pressure Humidity
    00:00 +12°C° 0.2 mm 2 mps 700 mmHg 87%
    01:00 +10°C° 0.2 mm 3 mps 700 mmHg 90%
    02:00 +9°C° 0 mm 2 mps 700 mmHg 90%
    03:00 +9°C° 0 mm 2 mps 700 mmHg 90%
    04:00 +8°C° 0 mm 2 mps 700 mmHg 90%
    05:00 +9°C° 0 mm 2 mps 701 mmHg 84%
    06:00 +10°C° 0 mm 2 mps 701 mmHg 79%
    07:00 +12°C° 0 mm 2 mps 701 mmHg 73%
    08:00 +12°C° 0 mm 3 mps 702 mmHg 63%
    09:00 +14°C° 0 mm 3 mps 702 mmHg 53%
    10:00 +16°C° 0 mm 3 mps 703 mmHg 43%
    11:00 +17°C° 0 mm 3 mps 703 mmHg 43%
    12:00 +18°C° 0 mm 3 mps 703 mmHg 44%
    13:00 +18°C° 0 mm 3 mps 703 mmHg 44%
    14:00 +18°C° 0 mm 4 mps 702 mmHg 48%
    15:00 +18°C° 0 mm 4 mps 702 mmHg 51%
    16:00 +17°C° 0 mm 4 mps 702 mmHg 55%
    17:00 +14°C° 0 mm 3 mps 702 mmHg 63%
    18:00 +12°C° 0 mm 3 mps 701 mmHg 71%
    19:00 +10°C° 0 mm 2 mps 701 mmHg 79%
    20:00 +9°C° 0 mm 2 mps 701 mmHg 83%
    21:00 +7°C° 0 mm 2 mps 701 mmHg 88%
    22:00 +6°C° 0 mm 2 mps 701 mmHg 92%
    23:00 +6°C° 0 mm 2 mps 700 mmHg 93%

    28 April, Sunday

    Time Temperature Precipitation Wind Pressure Humidity
    00:00 +6°C° 0 mm 2 mps 700 mmHg 93%
    01:00 +6°C° 0 mm 2 mps 700 mmHg 94%
    02:00 +5°C° 0 mm 2 mps 699 mmHg 94%
    03:00 +5°C° 0 mm 2 mps 699 mmHg 94%
    04:00 +5°C° 0 mm 2 mps 699 mmHg 94%
    05:00 +6°C° 0 mm 2 mps 699 mmHg 89%
    06:00 +7°C° 0 mm 2 mps 699 mmHg 85%
    07:00 +9°C° 0 mm 3 mps 699 mmHg 81%
    08:00 +11°C° 0 mm 3 mps 699 mmHg 74%
    09:00 +12°C° 0 mm 4 mps 699 mmHg 67%
    10:00 +14°C° 0 mm 5 mps 700 mmHg 61%
    11:00 +14°C° 0 mm 5 mps 699 mmHg 60%
    12:00 +14°C° 0 mm 6 mps 699 mmHg 60%
    13:00 +14°C° 0 mm 7 mps 699 mmHg 59%
    14:00 +12°C° 0 mm 7 mps 698 mmHg 62%
    15:00 +11°C° 0 mm 6 mps 698 mmHg 64%
    16:00 +10°C° 0 mm 6 mps 697 mmHg 67%
    17:00 +9°C° 0 mm 5 mps 697 mmHg 71%
    18:00 +7°C° 0 mm 4 mps 697 mmHg 75%
    19:00 +7°C° 0 mm 3 mps 696 mmHg 80%
    20:00 +5°C° 0 mm 3 mps 696 mmHg 81%
    21:00 +5°C° 0 mm 4 mps 696 mmHg 83%
    22:00 +4°C° 0 mm 4 mps 696 mmHg 85%
    23:00 +5°C° 0 mm 4 mps 696 mmHg 84%

    29 April, Monday

    Time Temperature Precipitation Wind Pressure Humidity
    00:00 +5°C° 0 mm 4 mps 696 mmHg 83%
    01:00 +5°C° 0 mm 5 mps 696 mmHg 83%
    02:00 +4°C° 0 mm 4 mps 696 mmHg 85%
    03:00 +4°C° 0 mm 4 mps 695 mmHg 87%
    04:00 +4°C° 0 mm 4 mps 695 mmHg 90%
    05:00 +5°C° 0 mm 4 mps 695 mmHg 86%
    06:00 +6°C° 0 mm 4 mps 695 mmHg 83%
    07:00 +7°C° 0 mm 5 mps 696 mmHg 79%
    08:00 +7°C° 0.5 mm 4 mps 696 mmHg 81%
    09:00 +8°C° 0.5 mm 3 mps 696 mmHg 83%
    10:00 +9°C° 0.5 mm 3 mps 696 mmHg 85%
    11:00 +9°C° 0.6 mm 3 mps 697 mmHg 83%
    12:00 +10°C° 0.6 mm 4 mps 697 mmHg 81%
    13:00 +10°C° 0.6 mm 5 mps 697 mmHg 79%
    14:00 +9°C° 0.5 mm 5 mps 697 mmHg 81%
    15:00 +9°C° 0.5 mm 5 mps 697 mmHg 83%
    16:00 +9°C° 0.5 mm 5 mps 697 mmHg 85%
    17:00 +8°C° 0.2 mm 4 mps 697 mmHg 88%
    18:00 +7°C° 0.2 mm 4 mps 697 mmHg 91%
    19:00 +7°C° 0.2 mm 3 mps 697 mmHg 94%
    20:00 +7°C° 0 mm 2 mps 697 mmHg 94%
    21:00 +6°C° 0 mm 2 mps 698 mmHg 95%
    22:00 +5°C° 0 mm 2 mps 698 mmHg 95%
    23:00 +5°C° 0 mm 2 mps 698 mmHg 95%
    Show more